PBO Station Position Time Series. Reference Frame : NAM14
Format Version,1.1.1
4-character ID,P674
Station name,GlassMtn__CN2006
Begin Date, 2006-08-25
End Date, 2023-06-26
Release Date, 2023-06-27
Reference position, 41.6163223945 North Latitude, -121.4899864784 East Longitude, 1897.21482 meters elevation,
Date, North (mm), East (mm), Vertical (mm), North Std. Deviation (mm), East Std. Deviation (mm),              Vertical Std. Deviation (mm), Quality,
2006-08-25,0.00, 0.00, 0.00, 2.10, 1.63, 7.43, repro,
2006-08-26,-0.28, -0.22, -4.44, 2.14, 1.68, 7.64, repro,
2006-08-27,-0.08, 0.09, -9.05, 2.15, 1.68, 7.62, repro,
2006-08-28,1.41, -0.11, -12.59, 2.15, 1.69, 7.68, repro,
2006-08-29,-0.11, -0.19, -10.78, 2.14, 1.70, 7.67, repro,
2006-08-30,-0.70, -0.04, -7.66, 2.14, 1.69, 7.65, repro,
2006-08-31,1.20, -0.65, -10.56, 2.15, 1.68, 7.63, repro,
2006-09-01,-0.33, -0.70, -14.46, 2.14, 1.68, 7.62, repro,
2006-09-02,-0.41, 0.02, -15.64, 2.15, 1.70, 7.66, repro,
2006-09-03,1.05, -0.86, -16.89, 2.14, 1.69, 7.66, repro,
2006-09-04,3.20, -1.15, -17.71, 2.22, 1.73, 7.84, repro,
2006-09-05,0.64, 0.35, -14.66, 2.21, 1.71, 7.77, repro,
2006-09-06,0.82, -1.08, -17.30, 2.21, 1.73, 7.78, repro,
2006-09-07,-1.97, 0.00, -9.53, 2.21, 1.74, 7.92, repro,
2006-09-08,1.96, -0.10, -11.56, 2.19, 1.74, 7.91, repro,
2006-09-09,-1.37, -2.69, -12.82, 2.16, 1.68, 7.61, repro,
2006-09-10,1.14, 0.63, -4.24, 2.12, 1.65, 7.44, repro,
2006-09-11,0.84, 0.31, -10.42, 2.11, 1.63, 7.35, repro,
2006-09-12,0.32, -0.70, -9.50, 2.13, 1.64, 7.38, repro,
2006-09-13,0.34, 0.64, -1.43, 2.11, 1.64, 7.37, repro,
2006-09-14,-1.05, 0.77, -5.86, 2.21, 1.74, 7.70, repro,
2006-09-15,1.33, -0.85, -6.72, 2.15, 1.63, 7.38, repro,
2006-09-16,0.84, -1.19, -8.22, 2.08, 1.59, 7.21, repro,
2006-09-17,1.52, -0.66, -4.11, 2.08, 1.59, 7.20, repro,
2006-09-18,0.10, -0.49, -10.31, 2.10, 1.60, 7.28, repro,
2006-09-19,0.71, 1.02, -10.65, 2.07, 1.59, 7.20, repro,
2006-09-20,1.11, -0.58, -18.55, 2.07, 1.60, 7.25, repro,
2006-09-21,-1.09, -1.05, -11.12, 2.11, 1.64, 7.39, repro,
2006-09-22,-0.74, -0.84, -7.57, 2.18, 1.69, 7.54, repro,
2006-09-23,-0.05, -0.44, -7.17, 2.14, 1.64, 7.37, repro,
2006-09-24,0.55, -0.45, -10.16, 2.19, 1.65, 7.40, repro,
2006-09-25,1.04, 0.40, -9.94, 2.19, 1.65, 7.50, repro,
2006-09-26,1.48, 0.15, -9.65, 2.16, 1.64, 7.37, repro,
2006-09-27,0.27, -0.33, -11.17, 2.14, 1.63, 7.29, repro,
2006-09-28,0.35, -0.18, -6.02, 2.18, 1.68, 7.46, repro,
2006-09-29,0.88, -0.89, -4.68, 2.17, 1.63, 7.35, repro,
2006-09-30,2.05, -1.80, -10.35, 2.13, 1.65, 7.49, repro,
2006-10-01,1.24, -0.52, -6.79, 2.11, 1.63, 7.36, repro,
2006-10-02,0.38, -0.70, -0.42, 2.17, 1.69, 7.46, repro,
2006-10-03,1.60, 0.23, -11.03, 2.16, 1.70, 7.50, repro,
2006-10-04,0.61, -1.27, -3.46, 2.11, 1.61, 7.30, repro,
2006-10-05,1.07, -0.81, -6.99, 2.11, 1.61, 7.29, repro,
2006-10-06,0.12, -0.87, -19.50, 2.10, 1.61, 7.27, repro,
2006-10-07,1.93, -2.02, -18.47, 2.28, 1.80, 8.07, repro,
2006-10-08,1.20, -0.03, -14.09, 2.15, 1.66, 7.45, repro,
2006-10-09,1.68, 0.42, -11.12, 2.14, 1.66, 7.43, repro,
2006-10-10,2.39, 0.78, -9.33, 2.15, 1.65, 7.53, repro,
2006-10-11,-0.36, 0.21, -3.70, 2.15, 1.65, 7.53, repro,
2006-10-12,-0.00, -0.34, -1.09, 2.12, 1.63, 7.37, repro,
2006-10-13,-0.17, 0.13, -1.79, 2.07, 1.60, 7.21, repro,
2006-10-14,1.88, 0.42, -5.06, 2.11, 1.64, 7.37, repro,
2006-10-15,-1.75, -1.32, 0.68, 2.10, 1.64, 7.40, repro,
2006-10-16,1.65, -0.25, -0.80, 2.09, 1.62, 7.36, repro,
2006-10-17,-0.42, -0.04, -0.96, 2.17, 1.70, 7.73, repro,
2006-10-18,0.69, 0.43, -8.53, 2.13, 1.69, 7.62, repro,
2006-10-19,3.11, 0.16, -6.50, 2.36, 1.75, 8.04, repro,
2006-10-20,0.50, -0.47, -6.68, 2.38, 1.85, 8.75, repro,
2006-10-21,-0.15, 0.48, -8.74, 2.18, 1.64, 7.72, repro,
2006-10-22,-1.86, -0.26, -12.49, 2.12, 1.67, 7.55, repro,
2006-10-23,1.17, -0.42, -9.96, 2.10, 1.66, 7.47, repro,
2006-10-24,1.89, 0.04, -9.10, 2.19, 1.70, 7.73, repro,
2006-10-25,0.93, -1.00, -10.43, 2.29, 1.72, 7.98, repro,
2006-10-26,0.97, -0.21, -8.20, 2.13, 1.68, 7.65, repro,
2006-10-27,0.17, -0.01, -13.66, 2.09, 1.65, 7.41, repro,
2006-10-28,-0.06, 0.47, -13.41, 2.22, 1.72, 7.96, repro,
2006-10-29,1.21, 0.63, -5.13, 2.12, 1.67, 7.55, repro,
2006-10-30,0.14, -0.33, -8.04, 2.04, 1.59, 7.20, repro,
2006-10-31,-0.29, -0.43, -6.63, 2.09, 1.63, 7.36, repro,
2006-11-01,-0.19, 0.67, -10.80, 2.11, 1.66, 7.50, repro,
2006-11-02,-1.66, -0.18, -14.25, 2.08, 1.64, 7.42, repro,
2006-11-03,-1.43, -0.60, -15.32, 2.08, 1.65, 7.43, repro,
2006-11-04,-1.53, 0.41, -25.28, 2.16, 1.67, 7.52, repro,
2006-11-05,0.65, -0.27, -14.42, 2.15, 1.66, 7.49, repro,
2006-11-06,-1.22, 0.76, -8.24, 2.06, 1.60, 7.27, repro,
2006-11-07,4.83, -0.04, -32.17, 2.27, 1.77, 7.97, repro,
2006-11-08,1.45, 1.63, -13.47, 2.20, 1.69, 7.68, repro,
2006-11-09,0.87, 1.08, -8.39, 2.24, 1.75, 7.84, repro,
2006-11-10,-0.24, -1.06, -9.01, 2.13, 1.62, 7.37, repro,
2006-11-11,1.06, 0.21, -11.46, 2.19, 1.67, 7.59, repro,
2006-11-12,-0.40, -0.60, -13.42, 2.25, 1.73, 7.79, repro,
2006-11-13,2.04, 2.28, -8.57, 2.21, 1.70, 7.64, repro,
2006-11-14,0.21, 0.07, -9.65, 2.07, 1.60, 7.23, repro,
2006-11-15,0.67, -0.40, -15.51, 2.04, 1.59, 7.13, repro,
2006-11-16,1.53, 4.20, -15.84, 2.05, 1.60, 7.20, repro,
2006-11-17,-1.15, 0.53, -27.31, 2.06, 1.60, 7.20, repro,
2006-11-18,0.78, -3.77, -29.13, 2.26, 1.76, 8.13, repro,
2006-11-19,0.03, -2.69, -26.44, 2.04, 1.60, 7.18, repro,
2006-11-20,0.88, 4.13, -22.96, 2.05, 1.60, 7.18, repro,
2006-11-21,-0.24, 0.53, -11.82, 2.05, 1.60, 7.17, repro,
2006-11-22,0.41, 3.46, -15.25, 2.04, 1.60, 7.13, repro,
2006-11-23,1.08, -0.31, -18.12, 2.07, 1.64, 7.37, repro,
2006-11-24,0.56, -1.42, -15.04, 2.15, 1.68, 7.58, repro,
2006-11-25,1.01, -0.66, -14.54, 2.07, 1.61, 7.20, repro,
2006-11-26,1.00, -1.48, -14.03, 2.08, 1.61, 7.22, repro,
2006-11-27,0.65, -0.28, -15.71, 2.08, 1.61, 7.22, repro,
2006-11-28,1.60, -2.11, -15.85, 2.04, 1.60, 7.16, repro,
2006-11-29,2.22, -0.05, -15.20, 2.05, 1.60, 7.21, repro,
2006-11-30,1.27, 0.73, -20.03, 2.05, 1.61, 7.20, repro,
2006-12-01,-0.28, -0.19, -24.53, 2.04, 1.61, 7.18, repro,
2006-12-02,1.01, -0.83, -25.72, 2.04, 1.61, 7.16, repro,
2006-12-03,1.22, -0.33, -20.41, 2.03, 1.61, 7.19, repro,
2006-12-04,0.49, -0.10, -20.02, 2.08, 1.61, 7.24, repro,
2006-12-05,0.43, -0.40, -21.75, 2.07, 1.67, 7.36, repro,
2006-12-06,0.55, -0.05, -21.63, 2.09, 1.67, 7.38, repro,
2006-12-07,1.64, -1.50, -22.95, 2.07, 1.68, 7.39, repro,
2006-12-08,-0.93, -1.71, -15.36, 2.07, 1.67, 7.35, repro,
2006-12-09,1.59, 1.53, -24.40, 2.12, 1.68, 7.42, repro,
2006-12-10,5.04, 5.45, -10.08, 2.12, 1.68, 7.45, repro,
2006-12-11,4.90, 2.46, -18.30, 2.05, 1.62, 7.23, repro,
2006-12-12,0.85, -0.03, -23.41, 2.10, 1.69, 7.39, repro,
2006-12-13,-3.11, 1.24, -32.08, 2.03, 1.64, 7.26, repro,
2006-12-14,0.39, 0.94, -25.42, 2.03, 1.62, 7.20, repro,
2006-12-15,-0.33, 0.70, -20.24, 2.10, 1.69, 7.43, repro,
2006-12-16,1.73, -1.40, -12.44, 2.11, 1.69, 7.42, repro,
2006-12-17,1.24, -0.67, -14.20, 2.15, 1.79, 7.86, repro,
2006-12-18,1.32, -0.03, -19.12, 2.33, 1.94, 8.60, repro,
2006-12-19,2.29, -0.19, -19.08, 2.15, 1.80, 7.86, repro,
2006-12-20,2.31, -0.61, -22.78, 2.15, 1.77, 7.56, repro,
2006-12-21,0.94, 1.38, -27.33, 2.06, 1.73, 7.49, repro,
2006-12-22,0.09, -0.81, -15.49, 2.18, 1.87, 8.12, repro,
2006-12-23,3.57, -0.13, -26.20, 2.12, 1.73, 7.67, repro,
2006-12-24,0.64, -1.59, -31.33, 2.05, 1.63, 7.22, repro,
2006-12-25,0.15, 3.26, -34.85, 2.11, 1.74, 7.54, repro,
2006-12-26,2.01, 2.17, -32.86, 2.12, 1.71, 7.49, repro,
2006-12-27,1.82, -1.93, -16.51, 2.11, 1.74, 7.69, repro,
2006-12-28,2.11, -0.80, -14.35, 2.29, 1.95, 8.40, repro,
2006-12-29,1.99, -1.71, -29.18, 2.13, 1.72, 7.65, repro,
2006-12-30,1.84, -0.73, -25.23, 2.10, 1.71, 7.52, repro,
2006-12-31,2.79, -2.82, -25.44, 2.20, 1.80, 7.85, repro,
2007-01-01,0.22, -0.79, -20.01, 2.35, 2.02, 8.76, repro,
2007-01-02,2.51, -0.72, -13.05, 2.23, 1.91, 8.33, repro,
2007-01-03,2.80, -2.06, -19.04, 2.07, 1.69, 7.54, repro,
2007-01-04,0.77, -2.52, -21.37, 2.04, 1.65, 7.29, repro,
2007-01-05,4.78, -3.39, -27.17, 2.05, 1.70, 7.39, repro,
2007-01-06,-0.22, -1.58, -26.96, 2.07, 1.71, 7.51, repro,
2007-01-07,1.56, -1.19, -25.56, 2.10, 1.66, 7.41, repro,
2007-01-08,1.92, -1.44, -27.80, 2.09, 1.69, 7.44, repro,
2007-01-09,1.32, -0.62, -24.04, 2.08, 1.64, 7.24, repro,
2007-01-10,0.67, 0.16, -24.55, 2.09, 1.63, 7.20, repro,
2007-01-11,1.71, -0.18, -17.19, 2.13, 1.64, 7.34, repro,
2007-01-12,2.73, -0.77, -23.14, 2.06, 1.60, 7.21, repro,
2007-01-13,2.49, -0.98, -26.05, 2.00, 1.58, 6.98, repro,
2007-01-14,2.93, -0.66, -23.52, 2.01, 1.57, 6.98, repro,
2007-01-15,1.39, -0.25, -31.98, 2.00, 1.57, 7.00, repro,
2007-01-16,0.76, -1.13, -25.31, 2.03, 1.58, 7.00, repro,
2007-01-17,1.27, -0.90, -25.21, 2.06, 1.64, 7.29, repro,
2007-01-18,1.29, -1.88, -31.18, 2.05, 1.62, 7.19, repro,
2007-01-19,2.43, -0.47, -22.34, 2.06, 1.59, 7.25, repro,
2007-01-20,1.65, -0.50, -23.98, 2.07, 1.60, 7.29, repro,
2007-01-21,1.08, -0.40, -23.77, 2.00, 1.57, 6.97, repro,
2007-01-22,1.14, 0.60, -20.64, 2.01, 1.58, 7.00, repro,
2007-01-23,1.14, -0.91, -27.59, 2.01, 1.58, 6.98, repro,
2007-01-24,-0.27, -0.72, -23.32, 2.00, 1.57, 6.97, repro,
2007-01-25,0.09, -0.48, -28.25, 2.07, 1.63, 7.19, repro,
2007-01-26,1.62, -1.12, -26.22, 2.00, 1.57, 6.90, repro,
2007-01-27,1.44, -0.16, -17.52, 2.00, 1.58, 6.94, repro,
2007-01-28,1.01, -0.24, -19.19, 2.01, 1.58, 6.95, repro,
2007-01-29,1.14, -0.33, -23.01, 1.98, 1.57, 6.89, repro,
2007-01-30,1.92, -0.63, -21.10, 1.99, 1.56, 6.87, repro,
2007-01-31,0.84, -0.20, -14.14, 1.99, 1.56, 6.87, repro,
2007-02-01,0.78, -0.26, -18.06, 2.04, 1.61, 7.12, repro,
2007-02-02,0.98, 0.08, -15.97, 2.05, 1.59, 7.08, repro,
2007-02-03,0.28, 0.25, -17.93, 2.05, 1.59, 7.06, repro,
2007-02-04,1.42, -0.92, -23.34, 2.00, 1.58, 6.93, repro,
2007-02-05,-0.41, 0.08, -26.03, 2.00, 1.57, 6.88, repro,
2007-02-06,-0.56, -0.87, -33.76, 2.01, 1.57, 6.91, repro,
2007-02-07,-1.39, 1.03, -30.75, 2.01, 1.57, 6.94, repro,
2007-02-08,3.21, 5.04, -26.83, 2.06, 1.63, 7.17, repro,
2007-02-09,0.78, 2.62, -35.90, 2.04, 1.64, 7.21, repro,
2007-02-10,1.75, 1.05, -25.87, 2.00, 1.58, 6.94, repro,
2007-02-11,3.54, 2.59, -33.39, 2.00, 1.57, 6.94, repro,
2007-02-12,2.10, -0.64, -26.58, 2.00, 1.56, 6.87, repro,
2007-02-13,0.21, 0.03, -21.37, 2.02, 1.58, 6.97, repro,
2007-02-14,0.65, 0.50, -24.92, 2.01, 1.58, 6.99, repro,
2007-02-15,-0.02, 1.29, -23.30, 2.00, 1.57, 6.93, repro,
2007-02-16,2.90, -0.86, -17.72, 2.00, 1.56, 6.90, repro,
2007-02-17,0.87, -0.00, -23.81, 2.04, 1.61, 7.09, repro,
2007-02-18,-0.68, -1.00, -14.14, 2.02, 1.58, 7.05, repro,
2007-02-19,0.65, -0.50, -12.40, 2.00, 1.58, 6.96, repro,
2007-02-20,1.83, -0.06, -22.57, 2.01, 1.58, 6.99, repro,
2007-02-21,1.35, 1.28, -23.67, 2.01, 1.58, 7.00, repro,
2007-02-22,1.48, 0.30, -21.68, 1.99, 1.57, 6.96, repro,
2007-02-23,0.54, -1.01, -17.28, 2.11, 1.65, 7.35, repro,
2007-02-24,0.61, 0.95, -24.17, 2.03, 1.59, 7.12, repro,
2007-02-25,-2.20, 2.05, -11.50, 2.02, 1.58, 6.99, repro,
2007-02-26,-0.42, -1.08, -23.57, 2.01, 1.57, 6.97, repro,
2007-02-27,-0.43, -0.35, -18.06, 2.00, 1.57, 6.96, repro,
2007-02-28,0.11, -0.64, -19.49, 2.01, 1.57, 6.96, repro,
2007-03-01,-0.58, -0.55, -17.16, 2.09, 1.64, 7.24, repro,
2007-03-02,-0.04, -0.25, -25.17, 2.08, 1.66, 7.28, repro,
2007-03-03,0.29, -0.90, -30.67, 2.04, 1.62, 7.15, repro,
2007-03-04,0.08, -1.19, -31.52, 2.03, 1.61, 7.10, repro,
2007-03-05,1.65, -2.05, -26.42, 2.04, 1.61, 7.09, repro,
2007-03-06,-0.26, -1.71, -21.04, 2.05, 1.61, 7.11, repro,
2007-03-07,-1.74, -1.65, -27.32, 2.05, 1.62, 7.16, repro,
2007-03-08,-0.76, 0.33, -23.56, 2.06, 1.63, 7.22, repro,
2007-03-09,-4.90, -5.46, -18.08, 2.04, 1.62, 7.15, repro,
2007-03-10,0.91, -0.99, -24.20, 2.13, 1.65, 7.39, repro,
2007-03-11,-0.08, -0.69, -23.55, 2.06, 1.61, 7.14, repro,
2007-03-12,-0.07, -0.45, -21.62, 2.07, 1.61, 7.13, repro,
2007-03-13,-1.28, -2.43, -16.18, 2.03, 1.58, 7.04, repro,
2007-03-14,-0.25, -0.18, -20.72, 2.02, 1.57, 6.99, repro,
2007-03-15,0.69, -0.33, -26.62, 2.05, 1.59, 7.06, repro,
2007-03-16,0.49, -0.19, -23.96, 2.05, 1.58, 7.02, repro,
2007-03-17,-2.15, -0.96, -15.94, 2.03, 1.57, 6.97, repro,
2007-03-18,-1.11, -1.80, -8.52, 2.02, 1.56, 6.93, repro,
2007-03-19,-3.07, -1.72, -24.07, 2.02, 1.57, 7.04, repro,
2007-03-20,-1.60, 1.45, -18.87, 2.12, 1.60, 7.17, repro,
2007-03-21,-0.34, -0.15, -15.19, 2.11, 1.59, 7.11, repro,
2007-03-22,-0.84, -1.60, -10.66, 2.04, 1.56, 6.97, repro,
2007-03-23,0.59, -0.80, -12.16, 2.03, 1.55, 6.90, repro,
2007-03-24,-1.34, -0.97, -17.87, 2.05, 1.60, 7.14, repro,
2007-03-25,-1.86, -1.01, -16.77, 2.03, 1.57, 7.00, repro,
2007-03-26,-0.12, 0.02, -27.52, 2.04, 1.56, 7.00, repro,
2007-03-27,-1.97, -0.17, -15.80, 2.11, 1.61, 7.21, repro,
2007-03-28,-0.40, -1.08, -19.27, 2.08, 1.57, 7.02, repro,
2007-03-29,-1.17, 0.17, -21.12, 2.02, 1.57, 6.95, repro,
2007-03-30,-0.41, 0.07, -19.59, 2.02, 1.56, 6.98, repro,
2007-03-31,-2.51, -2.04, -20.11, 2.03, 1.56, 7.00, repro,
2007-04-01,-1.46, -1.94, -22.18, 2.03, 1.58, 7.04, repro,
2007-04-02,-2.61, -0.02, -18.20, 2.03, 1.55, 6.90, repro,
2007-04-03,0.16, -1.71, -23.41, 2.08, 1.62, 7.23, repro,
2007-04-04,-1.00, -1.35, -24.53, 2.07, 1.61, 7.15, repro,
2007-04-05,0.28, 0.27, -25.94, 2.11, 1.64, 7.27, repro,
2007-04-06,0.16, -0.53, -23.03, 2.14, 1.68, 7.41, repro,
2007-04-07,-3.89, -1.49, -20.64, 2.07, 1.60, 7.06, repro,
2007-04-08,-0.66, -1.30, -20.80, 2.05, 1.56, 6.98, repro,
2007-04-09,0.54, -0.97, -18.43, 2.04, 1.56, 6.97, repro,
2007-04-10,0.96, -0.22, -20.21, 2.09, 1.60, 7.17, repro,
2007-04-11,-0.56, -1.07, -16.18, 2.04, 1.56, 6.98, repro,
2007-04-12,0.39, -0.16, -21.50, 2.04, 1.57, 7.02, repro,
2007-04-13,-0.45, 0.63, -19.45, 2.05, 1.58, 7.06, repro,
2007-04-14,-1.30, -1.14, -21.42, 2.06, 1.58, 7.12, repro,
2007-04-15,1.96, -0.14, -18.75, 2.05, 1.56, 6.99, repro,
2007-04-16,-0.04, -0.07, -17.05, 2.06, 1.57, 7.04, repro,
2007-04-17,-0.04, 1.07, -22.07, 2.05, 1.57, 7.08, repro,
2007-04-18,-0.28, 0.52, -22.10, 2.05, 1.57, 7.08, repro,
2007-04-19,-0.24, -1.12, -20.00, 2.05, 1.56, 7.03, repro,
2007-04-20,1.03, -0.78, -16.60, 2.06, 1.56, 7.07, repro,
2007-04-21,0.78, -2.03, -15.53, 2.06, 1.57, 7.06, repro,
2007-04-22,-0.92, -0.82, -14.79, 2.04, 1.56, 7.00, repro,
2007-04-23,-0.03, -0.56, -18.87, 2.09, 1.59, 7.15, repro,
2007-04-24,0.54, -1.07, -24.14, 2.09, 1.60, 7.18, repro,
2007-04-25,-0.24, -0.70, -23.78, 2.09, 1.59, 7.14, repro,
2007-04-26,0.82, -0.78, -18.67, 2.07, 1.56, 7.11, repro,
2007-04-27,0.16, -1.38, -20.38, 2.05, 1.56, 7.06, repro,
2007-04-28,-0.19, -3.48, -21.14, 2.06, 1.57, 7.10, repro,
2007-04-29,2.23, -1.61, -34.13, 2.07, 1.56, 7.10, repro,
2007-04-30,1.99, 1.48, -16.40, 2.05, 1.56, 7.06, repro,
2007-05-01,-1.63, -3.62, -24.94, 2.06, 1.56, 7.07, repro,
2007-05-02,-1.82, 3.70, -30.11, 2.15, 1.58, 7.35, repro,
2007-05-03,-0.25, -0.40, -18.51, 2.14, 1.59, 7.35, repro,
2007-05-04,0.43, -1.38, -21.04, 2.07, 1.55, 7.04, repro,
2007-05-05,1.02, -0.54, -24.89, 2.11, 1.60, 7.20, repro,
2007-05-06,-0.05, 0.36, -19.79, 2.06, 1.55, 7.07, repro,
2007-05-07,1.70, -0.36, -24.20, 2.07, 1.56, 7.11, repro,
2007-05-08,1.16, -1.01, -19.32, 2.08, 1.56, 7.16, repro,
2007-05-09,0.78, -2.26, -27.91, 2.07, 1.56, 7.07, repro,
2007-05-10,0.64, 0.08, -24.72, 2.17, 1.62, 7.46, repro,
2007-05-11,1.37, -0.54, -22.26, 2.14, 1.62, 7.43, repro,
2007-05-12,-0.40, -0.24, -23.01, 2.08, 1.56, 7.12, repro,
2007-05-13,0.96, -0.16, -19.89, 2.12, 1.60, 7.29, repro,
2007-05-14,1.18, 0.14, -21.08, 2.11, 1.59, 7.26, repro,
2007-05-15,0.78, -0.33, -22.97, 2.09, 1.56, 7.08, repro,
2007-05-16,0.03, -1.92, -21.96, 2.08, 1.56, 7.10, repro,
2007-05-17,0.04, -0.58, -20.22, 2.10, 1.60, 7.26, repro,
2007-05-18,1.66, -1.57, -15.54, 2.14, 1.65, 7.44, repro,
2007-05-19,2.11, -0.95, -27.16, 2.12, 1.60, 7.25, repro,
2007-05-20,-0.14, -0.92, -17.75, 2.15, 1.63, 7.31, repro,
2007-05-21,0.36, -0.08, -23.56, 2.11, 1.59, 7.17, repro,
2007-05-22,1.89, -0.40, -17.40, 2.09, 1.60, 7.18, repro,
2007-05-23,0.33, 0.08, -16.20, 2.11, 1.61, 7.25, repro,
2007-05-24,1.32, -0.60, -16.52, 2.21, 1.71, 7.66, repro,
2007-05-25,-1.58, -2.43, -20.90, 2.10, 1.57, 7.16, repro,
2007-05-26,0.93, 0.53, -20.44, 2.09, 1.57, 7.09, repro,
2007-05-27,-4.43, -3.16, -0.29, 2.10, 1.58, 7.13, repro,
2007-05-28,0.81, 0.14, -14.15, 2.08, 1.57, 7.08, repro,
2007-05-29,0.29, -0.28, -13.16, 2.06, 1.56, 7.04, repro,
2007-05-30,0.86, -0.58, -19.66, 2.13, 1.58, 7.19, repro,
2007-05-31,-0.85, 0.24, -15.42, 2.13, 1.61, 7.26, repro,
2007-06-01,-0.32, -0.06, -16.28, 2.10, 1.57, 7.05, repro,
2007-06-02,-0.33, 1.24, -15.80, 2.08, 1.57, 7.11, repro,
2007-06-03,1.57, 0.82, -10.80, 2.07, 1.57, 7.10, repro,
2007-06-04,-0.11, -1.01, -23.09, 2.08, 1.57, 7.12, repro,
2007-06-05,-1.75, -0.53, -17.79, 2.13, 1.59, 7.26, repro,
2007-06-06,-2.04, -0.44, -12.43, 2.08, 1.56, 7.08, repro,
2007-06-07,0.98, -0.82, -19.21, 2.07, 1.55, 7.01, repro,
2007-06-08,0.81, 0.42, -13.03, 2.08, 1.56, 7.06, repro,
2007-06-09,0.29, 0.64, -17.37, 2.07, 1.59, 7.14, repro,
2007-06-10,-2.37, -1.54, -6.76, 2.08, 1.58, 7.12, repro,
2007-06-11,1.05, 0.61, -23.23, 2.12, 1.67, 7.38, repro,
2007-06-12,1.68, -0.51, -20.71, 2.09, 1.60, 7.16, repro,
2007-06-13,1.15, -0.73, -20.05, 2.12, 1.61, 7.24, repro,
2007-06-14,0.47, 0.62, -23.29, 2.11, 1.61, 7.19, repro,
2007-06-15,0.97, -0.79, -11.13, 2.07, 1.58, 7.11, repro,
2007-06-16,0.38, -3.30, -20.20, 2.09, 1.58, 7.12, repro,
2007-06-17,-0.12, 1.64, -18.56, 2.07, 1.57, 7.09, repro,
2007-06-18,0.62, 1.76, -15.25, 2.06, 1.56, 6.99, repro,
2007-06-19,0.26, -0.34, -14.38, 2.07, 1.55, 7.02, repro,
2007-06-20,-1.07, -2.14, -21.82, 2.07, 1.57, 7.09, repro,
2007-06-21,-0.36, -1.22, -16.27, 2.08, 1.57, 7.11, repro,
2007-06-22,1.19, -0.05, -31.52, 2.08, 1.58, 7.19, repro,
2007-06-23,0.98, 2.13, -17.58, 2.06, 1.57, 7.06, repro,
2007-06-24,-0.23, 0.02, -15.77, 2.10, 1.60, 7.25, repro,
2007-06-25,0.45, 0.05, -21.75, 2.08, 1.57, 7.09, repro,
2007-06-26,1.20, 0.12, -24.64, 2.07, 1.56, 7.06, repro,
2007-06-27,1.92, -0.39, -22.92, 2.08, 1.57, 7.12, repro,
2007-06-28,-4.16, -0.67, -11.46, 2.08, 1.57, 7.14, repro,
2007-06-29,-1.73, 1.79, -17.99, 2.10, 1.58, 7.22, repro,
2007-06-30,0.82, 0.39, -7.70, 2.06, 1.57, 7.11, repro,
2007-07-01,-2.62, -2.16, -10.47, 2.08, 1.58, 7.14, repro,
2007-07-02,0.99, -1.66, -18.62, 2.09, 1.58, 7.16, repro,
2007-07-03,2.04, 0.18, -20.66, 2.08, 1.57, 7.18, repro,
2007-07-04,1.30, 1.96, -18.35, 2.06, 1.59, 7.16, repro,
2007-07-05,-1.58, 0.84, -14.79, 2.06, 1.57, 7.05, repro,
2007-07-06,2.48, -0.47, -26.63, 2.13, 1.64, 7.32, repro,
2007-07-07,2.21, 0.91, -10.69, 2.11, 1.59, 7.22, repro,
2007-07-08,-0.16, -0.24, -17.61, 2.08, 1.56, 7.06, repro,
2007-07-09,2.15, 2.84, -13.92, 2.07, 1.58, 7.11, repro,
2007-07-10,0.44, 1.76, -24.15, 2.07, 1.58, 7.14, repro,
2007-07-11,0.95, 1.11, -18.48, 2.08, 1.57, 7.10, repro,
2007-07-12,0.80, 0.30, -23.53, 2.10, 1.59, 7.20, repro,
2007-07-13,4.25, -1.47, -31.79, 2.12, 1.64, 7.30, repro,
2007-07-14,1.68, -0.73, -19.33, 2.09, 1.62, 7.20, repro,
2007-07-15,-1.19, 0.65, -15.80, 2.07, 1.58, 7.12, repro,
2007-07-16,-0.40, -1.37, -23.64, 2.06, 1.58, 7.08, repro,
2007-07-17,-1.72, -3.34, -19.03, 2.07, 1.57, 7.08, repro,
2007-07-18,0.83, -2.76, -22.92, 2.08, 1.57, 7.10, repro,
2007-07-19,-0.33, -1.63, -25.02, 2.09, 1.59, 7.20, repro,
2007-07-20,0.83, -3.68, -16.96, 2.08, 1.58, 7.14, repro,
2007-07-21,0.98, -1.18, -34.39, 2.12, 1.63, 7.32, repro,
2007-07-22,0.05, 0.69, -19.27, 2.08, 1.57, 7.07, repro,
2007-07-23,2.10, 2.72, -9.38, 2.12, 1.63, 7.29, repro,
2007-07-24,1.53, 0.19, -5.92, 2.11, 1.63, 7.25, repro,
2007-07-25,1.40, 0.49, -12.50, 2.09, 1.58, 7.16, repro,
2007-07-26,1.15, -0.18, -11.67, 2.08, 1.58, 7.15, repro,
2007-07-27,0.74, 0.75, -12.68, 2.15, 1.68, 7.52, repro,
2007-07-28,1.32, -0.81, -9.39, 2.06, 1.57, 7.03, repro,
2007-07-29,0.68, 0.27, -10.05, 2.10, 1.62, 7.23, repro,
2007-07-30,2.48, -0.48, -15.95, 2.13, 1.63, 7.30, repro,
2007-07-31,1.34, 1.19, -13.01, 2.06, 1.56, 7.03, repro,
2007-08-01,0.71, 0.37, -10.45, 2.06, 1.57, 7.09, repro,
2007-08-02,1.04, 1.12, -9.43, 2.09, 1.61, 7.21, repro,
2007-08-03,2.93, -1.03, -11.28, 2.07, 1.58, 7.13, repro,
2007-08-04,0.91, -0.22, -10.80, 2.09, 1.57, 7.12, repro,
2007-08-05,2.36, -0.02, -13.92, 2.12, 1.57, 7.16, repro,
2007-08-06,0.18, -0.40, -3.51, 2.10, 1.60, 7.19, repro,
2007-08-07,-0.64, 0.48, -5.48, 2.13, 1.62, 7.23, repro,
2007-08-08,1.25, -0.11, -10.04, 2.06, 1.57, 7.04, repro,
2007-08-09,1.95, -2.29, -6.49, 2.05, 1.56, 7.00, repro,
2007-08-10,3.34, 1.18, -6.83, 2.07, 1.57, 7.07, repro,
2007-08-11,0.97, -1.13, -5.33, 2.06, 1.56, 7.02, repro,
2007-08-12,-2.07, -1.74, -8.82, 2.06, 1.55, 7.00, repro,
2007-08-13,-1.95, -3.37, -12.01, 2.06, 1.55, 6.97, repro,
2007-08-14,-1.06, -1.62, -13.01, 2.17, 1.67, 7.34, repro,
2007-08-15,-0.28, -2.87, -3.32, 2.18, 1.68, 7.39, repro,
2007-08-16,0.25, -0.57, -17.77, 2.16, 1.63, 7.36, repro,
2007-08-17,1.84, -2.76, -13.89, 2.17, 1.62, 7.31, repro,
2007-08-18,-0.93, -2.19, -10.08, 2.20, 1.65, 7.53, repro,
2007-08-19,-0.96, -0.29, -10.34, 2.23, 1.69, 7.77, repro,
2007-08-20,2.14, -3.12, -24.71, 2.17, 1.62, 7.35, repro,
2007-08-21,0.58, -1.27, -9.25, 2.15, 1.61, 7.30, repro,
2007-08-22,1.21, -2.64, -10.04, 2.16, 1.61, 7.27, repro,
2007-08-23,2.55, -0.76, -7.47, 2.12, 1.56, 7.13, repro,
2007-08-24,1.91, 1.07, -0.35, 2.21, 1.63, 7.36, repro,
2007-08-25,1.09, -0.69, -12.40, 2.16, 1.63, 7.34, repro,
2007-08-26,2.56, -1.79, -7.51, 2.20, 1.69, 7.54, repro,
2007-08-27,1.70, -0.85, -4.52, 2.21, 1.68, 7.55, repro,
2007-08-28,1.31, 0.76, -7.56, 2.16, 1.63, 7.33, repro,
2007-08-29,2.02, 0.04, -11.28, 2.16, 1.62, 7.32, repro,
2007-08-30,0.41, -2.86, -19.10, 2.15, 1.64, 7.33, repro,
2007-08-31,0.14, 0.26, -22.04, 2.17, 1.65, 7.45, repro,
2007-09-01,1.24, -3.00, -1.25, 2.18, 1.65, 7.41, repro,
2007-09-02,-0.85, -2.87, -7.08, 2.16, 1.63, 7.30, repro,
2007-09-03,2.96, -1.56, -13.31, 2.17, 1.63, 7.35, repro,
2007-09-04,1.21, 0.49, -11.40, 2.16, 1.63, 7.30, repro,
2007-09-05,1.80, -1.05, -6.17, 2.16, 1.63, 7.33, repro,
2007-09-06,-0.12, -1.16, -6.23, 2.16, 1.63, 7.34, repro,
2007-09-07,1.24, -1.45, -4.96, 2.14, 1.62, 7.26, repro,
2007-09-08,1.72, -0.46, -5.41, 2.18, 1.66, 7.38, repro,
2007-09-09,1.62, -0.35, -7.66, 2.24, 1.71, 7.70, repro,
2007-09-10,2.13, -0.21, -10.02, 2.19, 1.64, 7.38, repro,
2007-09-11,0.90, -0.56, -9.24, 2.18, 1.65, 7.41, repro,
2007-09-12,2.22, -1.15, -7.47, 2.18, 1.64, 7.34, repro,
2007-09-13,1.65, -1.95, -7.64, 2.24, 1.65, 7.44, repro,
2007-09-14,1.78, -1.33, -6.20, 2.23, 1.68, 7.62, repro,
2007-09-15,1.65, -1.15, -6.18, 2.26, 1.65, 7.62, repro,
2007-09-16,2.01, -0.61, -4.69, 2.20, 1.65, 7.44, repro,
2007-09-17,1.58, -1.55, -8.45, 2.29, 1.73, 7.79, repro,
2007-09-18,0.46, -2.29, -3.87, 2.10, 1.62, 7.19, repro,
2007-09-19,0.40, -3.01, -5.07, 2.06, 1.56, 6.99, repro,
2007-09-20,1.71, -1.93, -4.68, 2.09, 1.57, 7.05, repro,
2007-09-21,1.05, 0.39, -0.67, 2.18, 1.60, 7.33, repro,
2007-09-22,1.38, -0.52, -5.39, 2.13, 1.59, 7.20, repro,
2007-09-23,1.27, -0.35, -3.92, 2.11, 1.57, 7.10, repro,
2007-09-24,0.49, 0.44, -4.51, 2.24, 1.68, 7.66, repro,
2007-09-25,-0.07, -0.59, -9.65, 2.15, 1.59, 7.25, repro,
2007-09-26,0.71, -0.21, 0.76, 2.13, 1.56, 7.12, repro,
2007-09-27,1.30, -1.70, -7.12, 2.16, 1.60, 7.34, repro,
2007-09-28,-0.68, -0.37, -5.91, 2.19, 1.66, 7.42, repro,
2007-09-29,0.97, -0.69, -8.67, 2.14, 1.66, 7.36, repro,
2007-09-30,-1.09, -0.18, -3.60, 2.18, 1.72, 7.48, repro,
2007-10-01,0.20, -0.40, -4.15, 2.15, 1.65, 7.33, repro,
2007-10-02,1.07, 0.28, 0.99, 2.21, 1.71, 7.64, repro,
2007-10-03,0.55, -0.87, -6.53, 2.17, 1.63, 7.39, repro,
2007-10-04,0.82, 1.76, -0.98, 2.17, 1.68, 7.47, repro,
2007-10-05,0.67, -1.09, -6.85, 2.16, 1.70, 7.54, repro,
2007-10-06,1.42, -0.37, -4.09, 2.15, 1.66, 7.37, repro,
2007-10-07,-0.26, 0.19, -8.07, 2.21, 1.67, 7.48, repro,
2007-10-08,-1.50, -3.25, -10.41, 2.42, 1.78, 8.22, repro,
2007-10-09,1.08, -0.81, -11.45, 2.40, 1.90, 8.42, repro,
2007-10-10,0.22, 1.89, -16.06, 2.35, 1.77, 8.13, repro,
2007-10-11,1.16, -0.74, -11.29, 2.15, 1.66, 7.34, repro,
2007-10-12,-1.90, -3.56, -6.46, 2.14, 1.65, 7.31, repro,